GORIZONT 22 (20953 NORAD) Tracking and Keplerian Element Data

This shows tracking and keplerian element data for the satellite.

Feedback or suggestion? Click here.




ElementValue
Catalog20953
NameGORIZONT 22
Epoch Orbit12536
Epoch Day34.04397718
Epoch Year2025
RAAN340.7778
Inclination13.1886
Eccentricity0.0003209
Argument of Perigee335.0097
Mean Anonmoly210.1877
Mean Motion1.00323504
Decay Rate9.2E-07
L11 20953U 90102A 25034.04397718 .00000092 00000+0 00000+0 0 9993
L22 20953 13.1886 340.7778 0003209 335.0097 210.1877 1.00323504125366



Live tracking and technical data element details for GORIZONT 22 (NORAD 20953). GORIZONT 22 can be tracked NOW for your location showing map with azimuth and elevation plus other details from your city location.







IsCatalogInMostPopularTable: catalog: 20953, numindb: 278
Update: records affected: 1



GetName: 20953 GORIZONT 22

Hit Count: updated at: Sat, 17 May 2025 09:47:01 GMT